ELECTRON KICK STAGE R/B, 45111

Orbit data source: Space-Track

ELECTRON KICK STAGE R/B, 45111 is space debris in LEO originally from a launch on Fri, 31 Jan 2020 UTC launched from the Rocket Lab Launch Complex (RLLC). Debris objects in space refer to the collection of defunct objects orbiting the Earth. Examples of debris include non-operational satellites, rocket bodies, and fragments generated from explosions, collisions, or faulty payload assembly.

Loading next visibility...
Identifier
45111, 2020-007B
Orbit
LEO
Country
Flag of USUS
Related business
Manufacturer
Rocket Lab
Mission
Spacecraft
Bus & Motor
KICK STAGE, CURIE
Mass
40 kg wet, 40 kg dry
Launch date (UTC)
2020-01-31 (6 years ago)
Launch vehicle
Unknown
Launch site
Rocket Lab Launch Complex (RLLC)
Object type
Payload
Rocket body
Debris
Shape & HBR
Trunc Cone, 0.7 m
Radar Cross Section
0.760 m², Medium (>0.1 m² and < 1m²)

Expand to show TLE details & history
Last TLE update: 19 hours ago

TLE from 19 hours ago
0 ELECTRON KICK STAGE R/B
1 45111U 20007B   25310.31207660  .00062509  00000-0  10710-2 0  9990
2 45111  69.9743 166.1871 0005760 265.3195  94.7333 15.50885175 82645
Epoch: 2025-11-06T07:29Z
TLE epoch observation values (Epoch: 2025-11-06T07:29:23.418Z)
Latitude
-0.00002°
Longitude
8.06732°
Altitude
416.944 km
Speed
7.661 km/s
True Right ascension
11h 04m 44s
True Declination
0° 00' 00"
Sunlit
Object was in daylight at epoch
Visualization orbit readout
Latitude
Unknown
Longitude
Unknown
Altitude
Unknown
Speed
Unknown
Apparent Right ascension
Unknown
Apparent Declination
Unknown
Sunlit
N/A
Visualization observer readout
Local Sidereal Time
22:11:21
Azimuth
Unknown
Elevation
Unknown
Doppler factor
Unknown
Orbital elements
Apogee altitude
415.955 km
Perigee altitude
408.132 km
Semi-major axis
6,790.181 km
Eccentricity
0.00058
Inclination
69.9743°
RAAN
166.1871°
Arg. of periapsis
265.3195°
True anomaly
94.79908°
Mean anomaly
94.7333°
Eccentric anomaly
94.76619°
Mean motion
3.87901 °/min
Orbital period
92.81 mins
BSTAR
0.001071
Loading maneuver chart data...
Computing Atmospheric mass density...
Loading historical data...
Loading historical data...
Loading historical data...
Loading historical data...
Loading historical data...
Loading historical data...
Loading historical data...
Other satellites on launch #7 in the year 2020 (2020-01-31 UTC)

Documentation

Showing up to 5 results
|